Other Public Products
Issued by NWS Grand Forks, ND

Home | Current Version | Previous Version | Text Only | Print | Product List | Glossary Off
Versions: 1 2 3 4 5 6 7 8 9 10 11 12 13 14 15 16 17 18 19 20 21 22 23 24 25 26 27 28 29 30 31 32 33 34 35 36 37 38 39 40 41 42 43 44 45 46 47 48 49 50

817
FPUS83 KFGF 052210
OPUFGF
PRAIRIE TO PINES WEATHER ROUNDUP
NATIONAL WEATHER SERVICE EASTERN NORTH DAKOTA/GRAND FORKS ND
400 PM CST FRI FEB 05 2016

 **SATELLITE DATA USED TO AUGMENT SKY COVER AT AUTOMATED STATIONS**
 *****  WEATHER ACROSS EASTERN NORTH DAKOTA  *****

CITY           SKY/WX    TMP DP  RH WIND       PRES   REMARKS
GRAND FORKS    SUNNY     27  18  69 CALM      30.12F
GRAND FORKS AF SUNNY     31  19  62 W5        30.12S
GRAND CITY NWS   N/A     27 N/A N/A W2          N/A
BUXTON           N/A     30  21  68 NW3         N/A
DEVILS LAKE    SUNNY     25  20  81 SW9       30.10F WCI  15
FARGO          SUNNY     31  22  69 NW5       30.14S
WAHPETON ARPT  CLEAR     27  23  86 CALM      30.16S
$$

 *****  WEATHER ACROSS CENTRAL AND WESTERN NORTH DAKOTA  *****

CITY           SKY/WX    TMP DP  RH WIND       PRES   REMARKS
JAMESTOWN      SUNNY     32  17  54 NW12      30.11F WCI  23
BISMARCK       SUNNY     43  24  47 W15       30.13F
MINOT          SUNNY     40  21  46 W15       30.06F
MINOT AFB      SUNNY     38  23  54 W2        30.05F
GARRISON         N/A     39  21  48 W13       30.08F
WILLISTON      CLOUDY    40  25  55 SW9       30.07F
DICKINSON      SUNNY     40  20  44 W15       30.08F
HETTINGER      SUNNY     43  18  36 W15       30.14S
$$

 *****  OTHER OBSERVATIONS NORTHEAST NORTH DAKOTA  *****

CITY           SKY/WX    TMP DP  RH WIND       PRES   REMARKS
WALHALLA       FAIR      27  19  74 CALM      30.11S
LANGDON        MOCLDY    27  19  74 W8        30.08R WCI  18
CAVALIER       MOCLDY    25  18  74 CALM      30.12S
GRAFTON        FAIR      21  18  86 CALM      30.15R
CANDO          NOT AVBL
FORT TOTTEN      N/A     28  19  69 W6        29.95S WCI  22
ROLLA          FAIR      25  19  80 SW13      30.05F WCI  13
RUGBY          FAIR      27  21  80 SW6       30.08F WCI  20
 ***** THE ABOVE OBSERVATIONS ARE NON NWS ARE NOT QUALITY
        CONTROLLED AND MAY MIS-REPORT RAIN FOR SNOW...
$$

 *****  OTHER OBSERVATIONS SOUTHEAST NORTH DAKOTA *****

CITY           SKY/WX    TMP DP  RH WIND       PRES   REMARKS
COOPERSTOWN    NOT AVBL
VALLEY CITY    FAIR      28  23  80 NW10      30.14S WCI  19
OAKES          FAIR      34  23  64 NW14      30.13F WCI  24
GWINNER        NOT AVBL
SHEYENNE NWR     N/A     33  22  63 NW8       29.95S
BUFFALO          N/A     30  18  60 NW10        N/A  WCI  21
WYNDMERE         N/A     27  21  80 W3          N/A
 ***** THE ABOVE OBSERVATIONS ARE NON NWS ARE NOT QUALITY
       CONTROLLED AND MAY MIS-REPORT RAIN FOR SNOW...
$$

  *****  WEATHER ACROSS NORTHERN MINNESOTA  *****

CITY           SKY/WX    TMP DP  RH WIND       PRES   REMARKS
FLAG ISLAND    CLOUDY    19  16  86 CALM      30.07S
WARROAD        CLOUDY    21  16  79 SW8       30.09S WCI  12
ROSEAU         PTSUNNY   21  16  79 SW5       30.09F WCI  15
HALLOCK        CLOUDY    21  16  79 CALM      30.12S
THF RVR FALLS  SUNNY     23  16  74 SW6       30.11F WCI  16
HALSTAD        NOT AVBL
FOSSTON        PTSUNNY   23  18  80 SW7       30.11F WCI  15
BAUDETTE       PTSUNNY   25  14  63 CALM      30.06S
WASKISH        CLOUDY    25  19  80 SW8       30.09S WCI  16
CROOKSTON      SUNNY     21  18  86 W3        30.14S
$$
  *****  WEATHER ACROSS CENTRAL AND WEST MINNESOTA  *****

CITY           SKY/WX    TMP DP  RH WIND       PRES   REMARKS
BEMIDJI        CLOUDY    26  20  80 W12       30.09S WCI  15
PARK RAPIDS    CLOUDY    28  21  75 SW7       30.09S WCI  21
WADENA         CLOUDY    27  19  74 W7        30.12R WCI  19
DETROIT LAKES  CLOUDY    28  23  80 NW8       30.13R WCI  20
MOORHEAD       SUNNY     28  21  74 NW3       30.15S
FERGUS FALLS   CLOUDY    27  21  80 W6        30.18R WCI  20
ELBOW LAKE     CLOUDY    25  21  86 SW3       30.15R FOG
MORRIS MN      PTSUNNY   28  23  80 W6        30.14R WCI  22
STAPLES        CLOUDY    27  16  63 SW8       30.13R WCI  18
WHEATON        CLOUDY    32  28  86 W6        30.18R
$$
  *****  WEATHER ELSEWHERE ACROSS MINNESOTA  *****

CITY           SKY/WX    TMP DP  RH WIND       PRES   REMARKS
DULUTH         PTSUNNY   26  10  50 SW17      30.09F WCI  13
INTRNTL FALLS  CLOUDY    25  14  63 W6        30.07S WCI  18
ELY            CLOUDY    23  14  68 CALM      30.07S
CLOQUET        CLOUDY    27  10  50 S13G20    30.12R WCI  16
BRAINERD       CLOUDY    26  14  60 S10       30.13R WCI  16
HIBBING        CLOUDY    25  13  60 VRB5      30.08R WCI  19
ALEXANDRIA     CLOUDY    25  20  81 SW8       30.13R WCI  16
SAINT CLOUD    PTSUNNY   24  14  65 S14       30.17F WCI  12
MINNEAPOLIS    CLOUDY    28  12  51 SW10      30.23F WCI  19
$$

  *****  WEATHER ACROSS SOUTH DAKOTA  *****

CITY           SKY/WX    TMP DP  RH WIND       PRES   REMARKS
SIOUX FALLS    CLOUDY    30  25  81 SW6       30.16R WCI  24
BROOKINGS      FLURRIES  29  24  82 NW9       30.13R WCI  20
WATERTOWN      MOSUNNY   29  22  75 W8        30.12R WCI  21
HURON          CLOUDY    33  30  88 NW8       30.17R
SISSETON         N/A     34  25  69 NW10      30.14R
ABERDEEN       SUNNY     41  20  43 N15       30.16R
MITCHELL       CLOUDY    33  29  85 NW9       30.18R
PIERRE         SUNNY     40  25  55 NW12      30.18S
MOBRIDGE       SUNNY     42  22  44 NW10      30.14S
RAPID CITY     SUNNY     41  22  46 N14       30.18F
$$

  *****  SOME WEATHER IN NEARBY STATES *****

CITY           SKY/WX    TMP DP  RH WIND       PRES   REMARKS
GLASGOW MT     SUNNY     38  27  64 SW6       30.04F
GREAT FALLS MT CLOUDY    48  22  35 SW25G33   30.08F
CHEYENNE WY    SUNNY     31  12  45 N20       30.22R WCI  19
SCOTTSBLUFF NE SUNNY     34  18  52 W16       30.26S WCI  24
OMAHA NE       LGT SNOW  31  27  85 S12       30.24F FOG     WCI  22
DES MOINES IA  CLOUDY    32  17  54 SE9       30.29F WCI  24
DAVENPORT IA   CLOUDY    29  19  66 CALM      30.36S
CHICAGO IL     CLOUDY    32  18  56 W7        30.34R
EAU CLAIRE WI  CLOUDY    23  12  62 S8        30.25F WCI  14
LA CROSSE WI   CLOUDY    25  14  63 S9        30.31F WCI  15
$$

  *****  SOME NATIONAL WEATHER *****

CITY           SKY/WX    TMP DP  RH WIND       PRES   REMARKS
LA GUARDIA NY  PTCLDY    40  18  41 NW18G29   30.17R
RALEIGH NC     PTCLDY    46  17  31 N3        30.33R
ATLANTA GA     MOSUNNY   49  13  23 NW10      30.33R
NEW ORLEANS LA MOSUNNY   55  16  21 N7        30.40F
OKLAHOMA CITY  CLOUDY    54  24  31 S13       30.22F
ALBUQUERQUE NM SUNNY     42   5  21 NW15      30.36S
SALT LAKE CITY MOSUNNY   36  24  62 S3        30.53S
LOS ANGELES CA MOSUNNY   75  24  15 W8        30.26F
BOISE ID       SUNNY     46  36  68 S9        30.47F
SEATTLE WA     CLOUDY    50  41  71 S10       30.06F
$$

*** WEATHER ACROSS MANITOBA...SASKATCHEWAN AND ONTARIO ***
                ***ONTARIO***

CITY           SKY/WX    TMP DP  RH WIND       PRES   REMARKS
GERALDTON      FLURRIES  14   7  73 W7        30.11S WCI   4
THUNDER BAY    FLURRIES  23  12  63 SW8       30.14F WCI  14
SIOUX LOOKOUT  LGT SNOW  12   9  85 S5        30.05S WCI   4
TORONTO        MOCLDY    34  18  51 W8        30.28R
BIG TROUT LK   FLURRIES  -8 -13  77 SW5       30.04F WCI -19
PICKLE LAKE    LGT SNOW   9   1  72 S7        30.01F WCI  -3
DRYDEN         FLURRIES  16  12  86 S3        30.03F
KENORA         FLURRIES  18  12  79 SW7       30.05S WCI   8
$$
                *** MANITOBA***

CITY           SKY/WX    TMP DP  RH WIND       PRES   REMARKS
BRANDON        PTSUNNY   23  16  74 SW7       30.04F WCI  15
DAUPHIN        CLOUDY    21  16  79 E7        30.04S WCI  13
ISLAND LAKE    FLURRIES   3  -6  66 W9        30.07S WCI -11
PILOT MOUND      N/A     25  18  74 SE3         N/A
THE PAS        FLURRIES  10   5  79 E5        30.05F WCI   2
THOMPSON       CRYSTALS  -9 -20  59 N5        30.13S WCI -21
WINNIPEG       CLOUDY    16  12  86 W3        30.12S
LYNN LAKE      CLEAR    -11 -20  64 E3        30.07S
CHURCHILL      CRYSTALS -31 -38  68 W9        30.22R WCI -53
GILLAM         CLEAR    -20 -29  63 NW10      30.16S WCI -41
$$
                ***SASKATCHEWAN***

CITY           SKY/WX    TMP DP  RH WIND       PRES   REMARKS
ESTEVAN        NOT AVBL
KINDERSLEY     PTSUNNY   30  25  80 S12       29.83F WCI  21
LLOYDMINSTER   PTSUNNY   28  19  69 S15       29.73F WCI  17
PRINCE ALBERT  CLOUDY    19  16  86 S6        29.92F WCI  11
REGINA         MOSUNNY   37  27  65 S8        29.95F
YORKTON        SUNNY     21  16  79 SW3       29.98F   C1F1C2F2C3F3C4F4C5F5C6F6C7F7C8F8C9F9CaFaCbFbCcFcCdFdCe!



USA.gov is the U.S. government's official web portal to all federal, state and local government web resources and services.